History for KNYNEWYO639

Roof of a 1 story trailer, New York, NY — Current Conditions
Daily Summary for June 28, 2017
  Current: High: Low: Average:
Temperature: 62.9°F 68.1°F 61.8°F 64.9°F
Dew Point: 51.0°F 53.0°F 50.0°F 51.0°F
Humidity: 66% 68% 57% 63%
Wind Speed: 7.9mph 13.3mph - 5.1mph
Wind Gust: 9.0mph 13.3mph - -
Wind: SSW - - SSW
Pressure: 30.16in 30.16in 30.07in -
Precipitation: 0.00in      
Statistics for the rest of the month
    High: Low: Average:
Temperature:   95.4°F 52.4°F 72.6°F
Dew Point:   74.0°F 38.0°F 57.5°F
Humidity:   97.0% 26.0% 62.6%
Wind Speed:   49.4mph from the ENE - 6.5mph
Wind Gust:   49.4mph from the SE - -
Wind:   - - South
Pressure:   30.16in 29.62in -
Precipitation:   0.00in    
KNYNEWYO639 Weather Graph
Tabular Data for June 28, 2017
Time Temp. Dew Point Pressure Wind Gust Humidity Rainfall
00:02 68.1°F 53.0°F 30.08in 6.0mph 59% 0.00in
00:07 68.0°F 53.0°F 30.07in 6.1mph 58% 0.00in
00:08 68.0°F 53.0°F 30.08in 6.0mph 58% 0.00in
00:13 68.0°F 53.0°F 30.08in 9.0mph 58% 0.00in
00:18 67.9°F 53.0°F 30.08in 11.0mph 58% 0.00in
00:23 67.8°F 52.0°F 30.09in 8.0mph 57% 0.00in
00:28 67.8°F 52.0°F 30.09in 9.0mph 58% 0.00in
00:33 67.7°F 52.0°F 30.08in 10.5mph 58% 0.00in
00:38 67.5°F 53.0°F 30.09in 11.0mph 59% 0.00in
00:43 67.3°F 52.0°F 30.09in 11.0mph 58% 0.00in
00:48 67.2°F 53.0°F 30.09in 10.0mph 59% 0.00in
00:53 67.1°F 53.0°F 30.09in 10.0mph 60% 0.00in
00:58 66.9°F 53.0°F 30.09in 8.0mph 60% 0.00in
01:03 66.7°F 52.0°F 30.09in 9.0mph 59% 0.00in
01:08 66.5°F 52.0°F 30.09in 9.0mph 59% 0.00in
01:13 66.4°F 52.0°F 30.09in 10.0mph 60% 0.00in
01:18 66.3°F 52.0°F 30.09in 8.0mph 60% 0.00in
01:23 66.2°F 52.0°F 30.09in 8.0mph 60% 0.00in
01:28 66.1°F 52.0°F 30.09in 8.0mph 61% 0.00in
01:33 66.0°F 52.0°F 30.09in 7.0mph 61% 0.00in
01:38 65.9°F 52.0°F 30.09in 9.0mph 61% 0.00in
01:43 65.7°F 51.0°F 30.09in 6.0mph 61% 0.00in
01:48 65.5°F 51.0°F 30.09in 7.0mph 60% 0.00in
01:53 65.3°F 51.0°F 30.09in 8.0mph 61% 0.00in
01:58 65.2°F 51.0°F 30.09in 13.0mph 61% 0.00in
02:03 65.0°F 51.0°F 30.09in 10.3mph 62% 0.00in
02:08 64.9°F 51.0°F 30.09in 11.0mph 62% 0.00in
02:13 64.9°F 51.0°F 30.09in 8.0mph 61% 0.00in
02:18 64.9°F 51.0°F 30.10in 9.0mph 62% 0.00in
02:23 64.8°F 51.0°F 30.10in 8.0mph 62% 0.00in
02:28 64.7°F 50.0°F 30.10in 8.0mph 61% 0.00in
02:33 64.6°F 51.0°F 30.10in 8.0mph 63% 0.00in
02:38 64.4°F 51.0°F 30.10in 10.0mph 63% 0.00in
02:43 64.4°F 51.0°F 30.10in 11.0mph 62% 0.00in
02:48 64.4°F 51.0°F 30.11in 10.0mph 62% 0.00in
02:53 64.3°F 51.0°F 30.10in 9.0mph 63% 0.00in
02:58 64.2°F 51.0°F 30.11in 5.0mph 63% 0.00in
03:03 64.1°F 51.0°F 30.11in 7.0mph 63% 0.00in
03:08 63.9°F 51.0°F 30.11in 7.0mph 63% 0.00in
03:13 63.8°F 50.0°F 30.11in 6.0mph 63% 0.00in
03:18 63.7°F 50.0°F 30.11in 7.0mph 63% 0.00in
03:23 63.6°F 50.0°F 30.11in 6.0mph 63% 0.00in
03:28 63.5°F 50.0°F 30.11in 6.0mph 63% 0.00in
03:33 63.5°F 50.0°F 30.11in 5.0mph 63% 0.00in
03:38 63.4°F 51.0°F 30.11in 7.0mph 64% 0.00in
03:43 63.3°F 50.0°F 30.11in 6.0mph 64% 0.00in
03:48 63.3°F 50.0°F 30.11in 8.0mph 64% 0.00in
03:53 63.2°F 50.0°F 30.11in 7.0mph 64% 0.00in
03:58 63.2°F 50.0°F 30.12in 7.0mph 64% 0.00in
04:03 63.2°F 50.0°F 30.12in 7.0mph 64% 0.00in
04:08 63.2°F 50.0°F 30.12in 7.0mph 64% 0.00in
04:13 63.1°F 50.0°F 30.12in 8.0mph 64% 0.00in
04:18 63.0°F 50.0°F 30.12in 5.0mph 64% 0.00in
04:23 62.9°F 50.0°F 30.13in 5.0mph 64% 0.00in
04:28 62.7°F 50.0°F 30.13in 7.0mph 65% 0.00in
04:33 62.6°F 50.0°F 30.13in 5.0mph 65% 0.00in
04:38 62.6°F 50.0°F 30.13in 7.0mph 65% 0.00in
04:43 62.6°F 50.0°F 30.13in 7.0mph 65% 0.00in
04:48 62.5°F 50.0°F 30.14in 7.0mph 65% 0.00in
04:53 62.4°F 50.0°F 30.14in 7.0mph 65% 0.00in
04:58 62.4°F 50.0°F 30.14in 7.0mph 65% 0.00in
05:03 62.3°F 50.0°F 30.14in 6.0mph 65% 0.00in
05:09 62.1°F 50.0°F 30.14in 6.0mph 65% 0.00in
05:14 62.1°F 50.0°F 30.14in 6.0mph 65% 0.00in
05:19 62.1°F 50.0°F 30.14in 4.0mph 66% 0.00in
05:24 62.1°F 51.0°F 30.14in 5.0mph 67% 0.00in
05:29 62.0°F 51.0°F 30.14in 5.0mph 67% 0.00in
05:34 61.9°F 51.0°F 30.14in 5.0mph 67% 0.00in
05:39 62.0°F 51.0°F 30.14in 6.0mph 68% 0.00in
05:44 62.0°F 51.0°F 30.14in 7.0mph 68% 0.00in
05:49 62.0°F 51.0°F 30.14in 7.0mph 68% 0.00in
05:54 61.9°F 51.0°F 30.15in 7.0mph 68% 0.00in
05:59 61.8°F 50.0°F 30.15in 8.0mph 67% 0.00in
06:04 62.0°F 51.0°F 30.15in 7.0mph 67% 0.00in
06:09 62.1°F 51.0°F 30.16in 6.0mph 68% 0.00in
06:14 62.1°F 51.0°F 30.15in 5.0mph 68% 0.00in
06:19 62.1°F 51.0°F 30.15in 5.0mph 68% 0.00in
06:24 62.0°F 51.0°F 30.15in 5.8mph 68% 0.00in
06:29 61.9°F 51.0°F 30.16in 8.0mph 68% 0.00in
06:34 61.9°F 51.0°F 30.16in 7.0mph 68% 0.00in
06:39 62.3°F 51.0°F 30.16in 8.0mph 68% 0.00in
06:44 62.9°F 51.0°F 30.16in 9.0mph 66% 0.00in
Comma Delimited File
Powered by Weather Underground, Inc.